Location: Theydon Bois
(51.6750°N, 0.1050°E)
Time: 05:11:25
(UTC+00:00)

Envisat - Pass Details

Date: 17 December 2019
Orbit: 764 x 766 km, 98.1° (Epoch: 20 January)

Event Time Altitude Azimuth Distance (km) Brightness Sun altitude
Rises 06:57:03 0° 15° (NNE) 3,247 6.1 -9.2°
Reaches altitude 10° 06:59:22 10° 16° (NNE) 2,316 5.4 -8.9°
Maximum altitude 07:04:29 82° 104° (ESE) 780 3.2 -8.2°
Drops below altitude 10° 07:09:34 10° 193° (SSW) 2,298 5.7 -7.5°
Sets 07:11:52 0° 194° (SSW) 3,219 6.4 -7.2°
